Tiempo cada hora Muravlev

Hoy, 21 Octubre, Miércoles

Tiempo Temperatura Precipitaciones Viento Presión Humedad
00:00 +5°C° 0 mm 3 mps 766 mmHg 64%
01:00 +4°C° 0 mm 3 mps 766 mmHg 68%
02:00 +3°C° 0 mm 3 mps 767 mmHg 72%
03:00 +2°C° 0 mm 3 mps 767 mmHg 76%
04:00 +2°C° 0 mm 3 mps 767 mmHg 78%
05:00 +2°C° 0 mm 3 mps 767 mmHg 81%
06:00 +1°C° 0 mm 3 mps 768 mmHg 83%
07:00 +3°C° 0 mm 3 mps 768 mmHg 76%
08:00 +4°C° 0 mm 3 mps 768 mmHg 70%
09:00 +6°C° 0 mm 4 mps 769 mmHg 61%
10:00 +7°C° 0 mm 4 mps 769 mmHg 54%
11:00 +10°C° 0 mm 4 mps 769 mmHg 47%
12:00 +11°C° 0 mm 4 mps 769 mmHg 40%
13:00 +12°C° 0 mm 4 mps 768 mmHg 38%
14:00 +12°C° 0 mm 4 mps 768 mmHg 36%
15:00 +13°C° 0 mm 4 mps 767 mmHg 34%
16:00 +11°C° 0 mm 3 mps 767 mmHg 38%
17:00 +10°C° 0 mm 2 mps 767 mmHg 42%
18:00 +9°C° 0 mm 1 mps 767 mmHg 45%
19:00 +9°C° 0 mm 1 mps 767 mmHg 46%
20:00 +8°C° 0 mm 0 mps 767 mmHg 46%
21:00 +8°C° 0 mm 0 mps 766 mmHg 46%
22:00 +8°C° 0 mm 0 mps 766 mmHg 47%
23:00 +9°C° 0 mm 1 mps 766 mmHg 47%

Mañana, 22 Octubre, Jueves

Tiempo Temperatura Precipitaciones Viento Presión Humedad
00:00 +9°C° 0 mm 1 mps 766 mmHg 48%
01:00 +8°C° 0 mm 1 mps 766 mmHg 50%
02:00 +8°C° 0 mm 1 mps 766 mmHg 52%
03:00 +6°C° 0 mm 2 mps 765 mmHg 54%
04:00 +6°C° 0 mm 2 mps 765 mmHg 56%
05:00 +6°C° 0 mm 2 mps 765 mmHg 59%
06:00 +6°C° 0 mm 2 mps 765 mmHg 62%
07:00 +7°C° 0 mm 2 mps 765 mmHg 57%
08:00 +9°C° 0 mm 3 mps 765 mmHg 53%
09:00 +10°C° 0 mm 3 mps 765 mmHg 49%
10:00 +12°C° 0 mm 4 mps 765 mmHg 46%
11:00 +13°C° 0 mm 4 mps 765 mmHg 43%
12:00 +15°C° 0 mm 4 mps 764 mmHg 40%
13:00 +15°C° 0 mm 4 mps 764 mmHg 41%
14:00 +17°C° 0 mm 4 mps 764 mmHg 43%
15:00 +17°C° 0 mm 4 mps 764 mmHg 44%
16:00 +15°C° 0 mm 4 mps 763 mmHg 50%
17:00 +14°C° 0 mm 4 mps 763 mmHg 56%
18:00 +13°C° 0 mm 4 mps 763 mmHg 62%
19:00 +12°C° 0 mm 4 mps 763 mmHg 68%
20:00 +12°C° 0 mm 4 mps 763 mmHg 74%
21:00 +12°C° 0 mm 4 mps 763 mmHg 80%
22:00 +12°C° 0 mm 4 mps 763 mmHg 80%
23:00 +12°C° 0 mm 4 mps 763 mmHg 81%

Pasado mañana, 23 Octubre, Viernes

Tiempo Temperatura Precipitaciones Viento Presión Humedad
00:00 +13°C° 0 mm 4 mps 763 mmHg 81%
01:00 +12°C° 0 mm 4 mps 762 mmHg 85%
02:00 +11°C° 0 mm 4 mps 762 mmHg 88%
03:00 +11°C° 0 mm 4 mps 762 mmHg 92%
04:00 +10°C° 0 mm 4 mps 762 mmHg 92%
05:00 +10°C° 0 mm 3 mps 762 mmHg 93%
06:00 +10°C° 0 mm 3 mps 762 mmHg 94%
07:00 +12°C° 0 mm 4 mps 762 mmHg 86%
08:00 +13°C° 0 mm 5 mps 762 mmHg 79%
09:00 +14°C° 0 mm 5 mps 762 mmHg 71%
10:00 +16°C° 0 mm 5 mps 762 mmHg 61%
11:00 +19°C° 0 mm 6 mps 762 mmHg 50%
12:00 +20°C° 0 mm 6 mps 761 mmHg 39%
13:00 +21°C° 0 mm 6 mps 761 mmHg 40%
14:00 +21°C° 0 mm 5 mps 761 mmHg 40%
15:00 +21°C° 0 mm 5 mps 761 mmHg 41%
16:00 +20°C° 0 mm 5 mps 760 mmHg 47%
17:00 +18°C° 0 mm 4 mps 760 mmHg 53%
18:00 +17°C° 0 mm 3 mps 760 mmHg 59%
19:00 +16°C° 0 mm 3 mps 760 mmHg 68%
20:00 +14°C° 0 mm 4 mps 760 mmHg 77%
21:00 +14°C° 0 mm 4 mps 760 mmHg 86%
22:00 +13°C° 0 mm 4 mps 760 mmHg 88%
23:00 +13°C° 0 mm 4 mps 759 mmHg 90%

24 Octubre, Sábado

Tiempo Temperatura Precipitaciones Viento Presión Humedad
00:00 +13°C° 0 mm 4 mps 759 mmHg 93%
01:00 +13°C° 0 mm 4 mps 759 mmHg 91%
02:00 +13°C° 0 mm 4 mps 759 mmHg 90%
03:00 +13°C° 0 mm 4 mps 759 mmHg 88%
04:00 +13°C° 0 mm 4 mps 758 mmHg 87%
05:00 +13°C° 0 mm 4 mps 758 mmHg 86%
06:00 +13°C° 0 mm 4 mps 758 mmHg 86%
07:00 +14°C° 0 mm 5 mps 758 mmHg 82%
08:00 +14°C° 0 mm 5 mps 758 mmHg 79%
09:00 +15°C° 0 mm 5 mps 758 mmHg 75%
10:00 +16°C° 0 mm 5 mps 758 mmHg 69%
11:00 +17°C° 0 mm 5 mps 758 mmHg 64%
12:00 +20°C° 0 mm 5 mps 758 mmHg 58%
13:00 +20°C° 0 mm 4 mps 758 mmHg 57%
14:00 +20°C° 0 mm 4 mps 758 mmHg 57%
15:00 +20°C° 0 mm 3 mps 758 mmHg 56%
16:00 +18°C° 0 mm 3 mps 758 mmHg 63%
17:00 +17°C° 0 mm 2 mps 758 mmHg 70%
18:00 +15°C° 0 mm 2 mps 758 mmHg 77%
19:00 +15°C° 0 mm 2 mps 758 mmHg 80%
20:00 +14°C° 0 mm 2 mps 758 mmHg 83%
21:00 +14°C° 0 mm 2 mps 758 mmHg 86%
22:00 +14°C° 0 mm 2 mps 758 mmHg 87%
23:00 +13°C° 0 mm 2 mps 758 mmHg 88%

25 Octubre, Domingo

Tiempo Temperatura Precipitaciones Viento Presión Humedad
00:00 +13°C° 0 mm 2 mps 758 mmHg 89%
01:00 +13°C° 0 mm 2 mps 757 mmHg 90%
02:00 +12°C° 0 mm 3 mps 757 mmHg 91%
03:00 +12°C° 0 mm 3 mps 757 mmHg 92%
04:00 +13°C° 0 mm 3 mps 757 mmHg 92%
05:00 +13°C° 0 mm 3 mps 757 mmHg 92%
06:00 +13°C° 0 mm 3 mps 757 mmHg 92%
07:00 +14°C° 0.1 mm 4 mps 756 mmHg 90%
08:00 +15°C° 0.1 mm 5 mps 756 mmHg 88%
09:00 +16°C° 0.1 mm 6 mps 756 mmHg 86%
10:00 +17°C° 0.1 mm 6 mps 756 mmHg 73%
11:00 +19°C° 0.1 mm 6 mps 756 mmHg 61%
12:00 +20°C° 0.1 mm 6 mps 756 mmHg 48%
13:00 +20°C° 0 mm 6 mps 756 mmHg 46%
14:00 +20°C° 0 mm 6 mps 756 mmHg 44%
15:00 +20°C° 0 mm 6 mps 756 mmHg 42%
16:00 +19°C° 0 mm 5 mps 757 mmHg 49%
17:00 +17°C° 0 mm 5 mps 757 mmHg 55%
18:00 +15°C° 0 mm 5 mps 757 mmHg 62%
19:00 +14°C° 0 mm 4 mps 757 mmHg 67%
20:00 +12°C° 0 mm 4 mps 758 mmHg 73%
21:00 +11°C° 0 mm 3 mps 758 mmHg 78%
22:00 +11°C° 0 mm 4 mps 758 mmHg 78%
23:00 +10°C° 0 mm 4 mps 758 mmHg 78%

26 Octubre, Lunes

Tiempo Temperatura Precipitaciones Viento Presión Humedad
00:00 +9°C° 0 mm 5 mps 759 mmHg 78%
01:00 +9°C° 0 mm 5 mps 759 mmHg 81%
02:00 +9°C° 0 mm 5 mps 759 mmHg 85%
03:00 +10°C° 0 mm 4 mps 759 mmHg 89%
04:00 +9°C° 0 mm 5 mps 760 mmHg 86%
05:00 +9°C° 0 mm 5 mps 760 mmHg 84%
06:00 +9°C° 0 mm 5 mps 761 mmHg 81%
07:00 +9°C° 0 mm 6 mps 761 mmHg 77%
08:00 +10°C° 0 mm 6 mps 761 mmHg 73%
09:00 +11°C° 0 mm 6 mps 762 mmHg 70%
10:00 +13°C° 0 mm 6 mps 762 mmHg 65%
11:00 +14°C° 0 mm 6 mps 762 mmHg 60%
12:00 +15°C° 0 mm 6 mps 762 mmHg 54%
13:00 +16°C° 0 mm 5 mps 762 mmHg 52%
14:00 +16°C° 0 mm 5 mps 762 mmHg 49%
15:00 +16°C° 0 mm 5 mps 762 mmHg 46%
16:00 +15°C° 0 mm 4 mps 762 mmHg 51%
17:00 +13°C° 0 mm 4 mps 763 mmHg 55%
18:00 +11°C° 0 mm 3 mps 763 mmHg 60%
19:00 +10°C° 0 mm 3 mps 763 mmHg 62%
20:00 +9°C° 0 mm 3 mps 763 mmHg 64%
21:00 +8°C° 0 mm 3 mps 764 mmHg 66%
22:00 +8°C° 0 mm 3 mps 764 mmHg 69%
23:00 +7°C° 0 mm 3 mps 764 mmHg 71%

27 Octubre, Martes

Tiempo Temperatura Precipitaciones Viento Presión Humedad
00:00 +5°C° 0 mm 3 mps 764 mmHg 74%
01:00 +5°C° 0 mm 3 mps 764 mmHg 77%
02:00 +4°C° 0 mm 3 mps 764 mmHg 81%
03:00 +4°C° 0 mm 3 mps 764 mmHg 84%
04:00 +4°C° 0 mm 3 mps 764 mmHg 85%
05:00 +4°C° 0 mm 3 mps 765 mmHg 87%
06:00 +3°C° 0 mm 3 mps 765 mmHg 88%
07:00 +5°C° 0 mm 3 mps 765 mmHg 81%
08:00 +6°C° 0 mm 4 mps 765 mmHg 75%
09:00 +7°C° 0 mm 4 mps 765 mmHg 68%
10:00 +10°C° 0 mm 4 mps 765 mmHg 63%
11:00 +12°C° 0 mm 4 mps 765 mmHg 57%
12:00 +15°C° 0 mm 4 mps 765 mmHg 52%
13:00 +15°C° 0 mm 5 mps 765 mmHg 51%
14:00 +16°C° 0 mm 5 mps 764 mmHg 51%
15:00 +16°C° 0 mm 5 mps 764 mmHg 50%
16:00 +14°C° 0 mm 4 mps 764 mmHg 58%
17:00 +13°C° 0 mm 3 mps 764 mmHg 65%
18:00 +11°C° 0 mm 3 mps 765 mmHg 72%
19:00 +10°C° 0 mm 3 mps 765 mmHg 76%
20:00 +10°C° 0 mm 3 mps 765 mmHg 80%
21:00 +9°C° 0 mm 3 mps 765 mmHg 84%
22:00 +8°C° 0 mm 3 mps 765 mmHg 86%
23:00 +8°C° 0 mm 3 mps 765 mmHg 88%
Mostrar más

Necesitamos Su Consentimiento

Meteoprog y nuestros Proveedores de Servicios pueden almacenar y acceder a sus datos personales como cookies, identificadores de dispositivo u otras tecnologías similares de su dispositivo y procesar dichos datos para personalizar contenido y anuncios, además de ofrecer funciones de redes sociales y analizar el tráfico.

  • Almacenar y/o acceder a información en su dispositivo

    Se puede almacenar o acceder a cookies, identificadores de dispositivo u otra información de su dispositivo para los fines anteriormente indicados.

  • Anuncios y contenido personalizados, medición de anuncios y contenido, percepciones del público, y desarrollo de productos

    Los anuncios y el contenido pueden personalizarse en base a su perfil. Se pueden añadir más datos para personalizar mejor los anuncios y contenidos. Se puede medir el rendimiento de los anuncios y contenidos. Se puede obtener la percepción sobre el público que ha visto los anuncios y contenidos. Dichos datos pueden usarse para desarrollar o mejorar la experiencia del usuario, sistemas y software.

Al hacer clic en ‘Estoy De Acuerdo’ usted permitirá el uso de las cookies, identificadores de dispositivo, balizas web u otras tecnologías similares indicadas. Su configuración puede cambiarse desde el navegador de su dispositivo.

Para ciertos fines, los intereses legítimos pueden ser considerados por encima del consentimiento. Puede leer más sobre ello en nuestra Política de Privacidad y Cookies.